CW7386 Weather Reports


Display with metric or nautical units.
time (UTC)temp
F
wind
direction
speed
MPH
gust
MPH
rain 1hr
in
rain 24hr
in
rain mn
in
humidity
%
barometer
mb
20190425163236 50 17 0.0 2.0 0.00 0.00 0.00 74 1021.4
20190425162737 50 331 0.0 2.0 0.00 0.00 0.00 74 1021.5
20190425162236 49 331 0.0 10.0 0.00 0.00 0.00 75 1021.5
20190425161736 49 331 0.0 10.0 0.00 0.00 0.00 75 1021.6
20190425161236 49 313 1.0 10.0 0.00 0.00 0.00 77 1021.7
20190425160737 49 348 1.0 10.0 0.00 0.00 0.00 78 1021.8
20190425160236 48 313 1.0 0.0 0.00 0.00 0.00 79 1021.9
20190425155736 48 318 0.0 0.0 0.00 0.00 0.00 80 1021.8
20190425155236 48 5 0.0 0.0 0.00 0.00 0.00 83 1021.9
20190425154736 47 338 0.0 0.0 0.00 0.00 0.00 84 1021.9
20190425154237 47 350 0.0 0.0 0.00 0.00 0.00 85 1021.9
20190425153736 46 348 0.0 0.0 0.00 0.00 0.00 86 1022.1
20190425153236 46 0 0.0 0.0 0.00 0.00 0.00 87 1022.0
20190425152736 46 0 0.0 0.0 0.00 0.00 0.00 88 1022.1
20190425152236 45 30 0.0 0.0 0.00 0.00 0.00 89 1022.1
20190425151737 45 318 0.0 0.0 0.00 0.00 0.00 90 1022.1
20190425151237 45 317 0.0 0.0 0.00 0.00 0.00 91 1022.1
20190425150737 44 283 0.0 0.0 0.00 0.00 0.00 91 1022.1
20190425150237 44 281 0.0 0.0 0.00 0.00 0.00 91 1022.1
20190425145737 44 281 0.0 0.0 0.00 0.00 0.00 92 1022.2
20190425145237 43 280 0.0 0.0 0.00 0.00 0.00 92 1022.1
20190425144736 43 280 0.0 0.0 0.00 0.00 0.00 92 1022.2
20190425144236 42 281 0.0 0.0 0.00 0.00 0.00 92 1022.2
20190425143737 42 281 0.0 0.0 0.00 0.00 0.00 92 1022.2
20190425143236 42 275 0.0 0.0 0.00 0.00 0.00 92 1022.2
20190425142737 42 266 0.0 0.0 0.00 0.00 0.00 93 1022.2
20190425142236 41 259 0.0 0.0 0.00 0.00 0.00 93 1022.2
20190425141737 41 325 0.0 0.0 0.00 0.00 0.00 92 1022.3
20190425141236 40 322 0.0 0.0 0.00 0.00 0.00 92 1022.3
20190425140737 40 322 0.0 0.0 0.00 0.00 0.00 92 1022.3
20190425140236 40 323 0.0 0.0 0.00 0.00 0.00 92 1022.2
20190425135737 40 318 0.0 0.0 0.00 0.00 0.00 92 1022.3
20190425135237 39 318 0.0 0.0 0.00 0.00 0.00 92 1022.3
20190425134736 39 319 0.0 0.0 0.00 0.00 0.00 92 1022.3
20190425134237 39 318 0.0 0.0 0.00 0.00 0.00 92 1022.3
20190425133737 39 319 0.0 0.0 0.00 0.00 0.00 92 1022.3
20190425133236 38 318 0.0 0.0 0.00 0.00 0.00 91 1022.4
20190425132736 38 318 0.0 0.0 0.00 0.00 0.00 91 1022.4
20190425132236 38 318 0.0 0.0 0.00 0.00 0.00 91 1022.4
20190425131737 38 317 0.0 0.0 0.00 0.00 0.00 91 1022.4
20190425131236 39 317 0.0 0.0 0.00 0.00 0.00 91 1022.4
20190425130737 39 317 0.0 0.0 0.00 0.00 0.00 91 1022.4
20190425130237 39 317 0.0 0.0 0.00 0.00 0.00 91 1022.4
20190425125736 39 315 0.0 0.0 0.00 0.00 0.00 91 1022.4
20190425125236 39 315 0.0 0.0 0.00 0.00 0.00 91 1022.4
20190425124737 38 275 0.0 0.0 0.00 0.00 0.00 91 1022.5
20190425124237 38 308 0.0 0.0 0.00 0.00 0.00 91 1022.5
20190425123736 38 307 0.0 0.0 0.00 0.00 0.00 90 1022.4
20190425123236 38 315 0.0 0.0 0.00 0.00 0.00 90 1022.4
20190425122737 38 329 0.0 0.0 0.00 0.00 0.00 90 1022.5
20190425122237 38 329 0.0 0.0 0.00 0.00 0.00 90 1022.5
20190425121736 38 329 0.0 0.0 0.00 0.00 0.00 90 1022.6
20190425121236 38 329 0.0 0.0 0.00 0.00 0.00 90 1022.6
20190425120737 39 329 0.0 0.0 0.00 0.00 0.00 90 1022.7
20190425120237 39 329 0.0 0.0 0.00 0.00 0.00 90 1022.7
20190425115736 39 329 0.0 0.0 0.00 0.00 0.00 90 1022.7
20190425115236 39 329 0.0 0.0 0.00 0.00 0.00 90 1022.7
20190425114736 39 329 0.0 0.0 0.00 0.00 0.00 90 1022.7
20190425114236 39 329 0.0 0.0 0.00 0.00 0.00 90 1022.7
20190425113737 39 329 0.0 0.0 0.00 0.00 0.00 90 1022.8
20190425113236 39 329 0.0 0.0 0.00 0.00 0.00 90 1022.8
20190425112737 39 329 0.0 0.0 0.00 0.00 0.00 90 1022.8
20190425112236 39 329 0.0 0.0 0.00 0.00 0.00 89 1022.9
20190425111736 39 329 0.0 0.0 0.00 0.00 0.00 89 1022.9
20190425111237 39 329 0.0 0.0 0.00 0.00 0.00 89 1023.0
20190425110736 39 329 0.0 0.0 0.00 0.00 0.00 89 1023.0
20190425110236 39 329 0.0 0.0 0.00 0.00 0.00 89 1023.0
20190425105736 40 329 0.0 0.0 0.00 0.00 0.00 89 1023.0
20190425105236 40 329 0.0 0.0 0.00 0.00 0.00 89 1023.0
20190425104736 40 329 0.0 0.0 0.00 0.00 0.00 89 1023.0
20190425104236 40 329 0.0 0.0 0.00 0.00 0.00 89 1023.0
20190425103737 40 329 0.0 0.0 0.00 0.00 0.00 89 1023.1
20190425103236 40 329 0.0 0.0 0.00 0.00 0.00 89 1023.0
20190425102736 40 329 0.0 0.0 0.00 0.00 0.00 88 1023.1
20190425102237 40 329 0.0 0.0 0.00 0.00 0.00 88 1023.1
20190425101737 40 329 0.0 0.0 0.00 0.00 0.00 88 1023.2
20190425101237 40 329 0.0 0.0 0.00 0.00 0.00 88 1023.2
20190425100737 40 329 0.0 0.0 0.00 0.00 0.00 88 1023.2
20190425100237 40 329 0.0 0.0 0.00 0.00 0.00 87 1023.2
20190425095737 40 329 0.0 0.0 0.00 0.00 0.00 87 1023.3
20190425095236 40 329 0.0 0.0 0.00 0.00 0.00 87 1023.2
20190425094737 40 329 0.0 0.0 0.00 0.00 0.00 87 1023.3
20190425094236 40 329 0.0 0.0 0.00 0.00 0.00 87 1023.4
20190425093737 40 329 0.0 0.0 0.00 0.00 0.00 87 1023.3
20190425093237 40 329 0.0 0.0 0.00 0.00 0.00 87 1023.2
20190425092736 40 329 0.0 0.0 0.00 0.00 0.00 86 1023.2
20190425092236 40 329 0.0 0.0 0.00 0.00 0.00 86 1023.2
20190425091737 40 329 0.0 0.0 0.00 0.00 0.00 86 1023.2
20190425091236 41 329 0.0 0.0 0.00 0.00 0.00 85 1023.3
20190425090736 41 329 0.0 0.0 0.00 0.00 0.00 85 1023.3
20190425090236 41 329 0.0 0.0 0.00 0.00 0.00 85 1023.4
20190425085736 41 329 0.0 0.0 0.00 0.00 0.00 85 1023.4
20190425085236 41 329 0.0 0.0 0.00 0.00 0.00 85 1023.4
20190425084737 41 329 0.0 0.0 0.00 0.00 0.00 84 1023.4
20190425084237 42 329 0.0 0.0 0.00 0.00 0.00 84 1023.4
20190425083737 42 329 0.0 0.0 0.00 0.00 0.00 84 1023.5
20190425083236 42 329 0.0 0.0 0.00 0.00 0.00 84 1023.5
20190425082736 42 329 0.0 0.0 0.00 0.00 0.00 83 1023.5
20190425082237 42 329 0.0 0.0 0.00 0.00 0.00 83 1023.6
20190425081737 42 329 0.0 0.0 0.00 0.00 0.00 83 1023.7
20190425081236 42 329 0.0 0.0 0.00 0.00 0.00 83 1023.7
20190425080737 42 329 0.0 0.0 0.00 0.00 0.00 83 1023.7
20190425080236 42 329 0.0 0.0 0.00 0.00 0.00 82 1023.8
20190425075736 42 329 0.0 0.0 0.00 0.00 0.00 82 1023.8
20190425075236 43 329 0.0 0.0 0.00 0.00 0.00 81 1023.8
20190425074737 43 329 0.0 0.0 0.00 0.00 0.00 80 1023.9
20190425074236 43 329 0.0 0.0 0.00 0.00 0.00 80 1023.9
20190425073737 44 329 0.0 0.0 0.00 0.00 0.00 80 1023.9
20190425073237 44 329 0.0 0.0 0.00 0.00 0.00 80 1024.0
20190425072736 44 329 0.0 0.0 0.00 0.00 0.00 79 1024.0
20190425072236 44 329 0.0 0.0 0.00 0.00 0.00 79 1024.0
20190425071737 44 329 0.0 0.0 0.00 0.00 0.00 79 1024.0
20190425071236 44 329 0.0 0.0 0.00 0.00 0.00 79 1024.1
20190425070736 44 329 0.0 0.0 0.00 0.00 0.00 78 1024.1
20190425070236 44 329 0.0 0.0 0.00 0.00 0.00 78 1024.2
20190425065737 44 329 0.0 0.0 0.00 0.00 0.00 77 1024.1
20190425065237 44 329 0.0 0.0 0.00 0.00 0.00 77 1024.1
20190425064736 44 329 0.0 0.0 0.00 0.00 0.00 77 1024.1
20190425064237 45 329 0.0 0.0 0.00 0.00 0.00 76 1024.2
20190425063737 45 329 0.0 0.0 0.00 0.00 0.00 76 1024.2
20190425063237 45 329 0.0 0.0 0.00 0.00 0.00 76 1024.3
20190425062737 46 329 0.0 0.0 0.00 0.00 0.00 75 1024.3
20190425062236 46 329 0.0 0.0 0.00 0.00 0.00 75 1024.2
20190425061736 46 329 0.0 0.0 0.00 0.00 0.00 74 1024.3
20190425061236 46 329 0.0 0.0 0.00 0.00 0.00 74 1024.3
20190425060737 46 329 0.0 0.0 0.00 0.00 0.00 74 1024.4
20190425060236 46 329 0.0 0.0 0.00 0.00 0.00 73 1024.3
20190425055737 47 329 0.0 0.0 0.00 0.00 0.00 73 1024.3
20190425055237 47 329 0.0 0.0 0.00 0.00 0.00 73 1024.3
20190425054736 47 329 0.0 0.0 0.00 0.00 0.00 72 1024.3
20190425054237 47 329 0.0 0.0 0.00 0.00 0.00 72 1024.4
20190425053737 47 329 0.0 0.0 0.00 0.00 0.00 72 1024.4
20190425053237 47 329 0.0 0.0 0.00 0.00 0.00 72 1024.4
20190425052736 47 329 0.0 0.0 0.00 0.00 0.00 72 1024.5
20190425052237 47 329 0.0 0.0 0.00 0.00 0.00 71 1024.5
20190425051737 48 329 0.0 0.0 0.00 0.00 0.00 71 1024.4
20190425051237 48 329 0.0 0.0 0.00 0.00 0.00 71 1024.4
20190425050737 48 329 0.0 0.0 0.00 0.00 0.00 70 1024.4
20190425050236 48 329 0.0 0.0 0.00 0.00 0.00 69 1024.5
20190425045736 49 329 0.0 0.0 0.00 0.00 0.00 68 1024.6
20190425045236 49 329 0.0 0.0 0.00 0.00 0.00 68 1024.5
20190425044736 49 329 0.0 0.0 0.00 0.00 0.00 68 1024.7
20190425044236 49 329 0.0 0.0 0.00 0.00 0.00 67 1024.7
20190425043736 49 329 0.0 0.0 0.00 0.00 0.00 67 1024.7
20190425043236 50 329 0.0 0.0 0.00 0.00 0.00 66 1024.6
20190425042737 50 329 0.0 0.0 0.00 0.00 0.00 67 1024.6
20190425042236 50 329 0.0 0.0 0.00 0.00 0.00 67 1024.6
20190425041737 50 329 0.0 0.0 0.00 0.00 0.00 66 1024.6
20190425041236 50 329 0.0 0.0 0.00 0.00 0.00 66 1024.6
20190425040737 51 329 0.0 0.0 0.00 0.00 0.00 65 1024.6
20190425040236 51 329 0.0 0.0 0.00 0.00 0.00 65 1024.5
20190425035736 51 329 0.0 0.0 0.00 0.00 0.00 65 1024.5
20190425035237 51 329 0.0 0.0 0.00 0.00 0.00 64 1024.5
20190425034737 51 329 0.0 0.0 0.00 0.00 0.00 63 1024.5
20190425034237 51 329 0.0 0.0 0.00 0.00 0.00 62 1024.4
20190425033737 51 329 0.0 0.0 0.00 0.00 0.00 62 1024.3
20190425033236 52 329 0.0 0.0 0.00 0.00 0.00 61 1024.4
20190425032737 52 329 0.0 0.0 0.00 0.00 0.00 60 1024.3
20190425032236 53 329 0.0 0.0 0.00 0.00 0.00 60 1024.4
20190425031736 53 329 0.0 0.0 0.00 0.00 0.00 59 1024.3
20190425031236 53 329 0.0 1.0 0.00 0.00 0.00 59 1024.3
20190425030737 53 329 0.0 1.0 0.00 0.00 0.00 58 1024.2
20190425030236 53 329 0.0 1.0 0.00 0.00 0.00 57 1024.2
20190425025737 54 329 0.0 1.0 0.00 0.00 0.00 56 1024.2
20190425025237 54 329 0.0 1.0 0.00 0.00 0.00 56 1024.3
20190425024737 54 329 0.0 1.0 0.00 0.00 0.00 54 1024.2
20190425024237 55 340 0.0 1.0 0.00 0.00 0.00 54 1024.2
20190425023737 55 334 0.0 1.0 0.00 0.00 0.00 54 1024.2
20190425023237 55 336 0.0 1.0 0.00 0.00 0.00 54 1024.2
20190425022736 55 346 0.0 1.0 0.00 0.00 0.00 53 1024.3
20190425022236 55 303 0.0 2.0 0.00 0.00 0.00 55 1024.3
20190425021736 55 304 0.0 2.0 0.00 0.00 0.00 56 1024.4
20190425021236 56 316 0.0 2.0 0.00 0.00 0.00 55 1024.4
20190425020737 56 321 0.0 2.0 0.00 0.00 0.00 55 1024.4
20190425020236 56 288 0.0 11.0 0.00 0.00 0.00 55 1024.4
20190425015736 56 296 2.0 11.0 0.00 0.00 0.00 54 1024.5
20190425015236 56 315 2.0 11.0 0.00 0.00 0.00 54 1024.5
20190425014736 57 287 0.0 11.0 0.00 0.00 0.00 53 1024.6
20190425014236 57 300 0.0 11.0 0.00 0.00 0.00 54 1024.6
20190425013736 57 312 2.0 14.0 0.00 0.00 0.00 54 1024.6
20190425013236 57 321 5.0 14.0 0.00 0.00 0.00 54 1024.7
20190425012737 57 295 6.0 14.0 0.00 0.00 0.00 54 1024.6
20190425012237 57 317 4.0 13.0 0.00 0.00 0.00 53 1024.7
20190425011737 57 333 2.0 15.0 0.00 0.00 0.00 53 1024.6
20190425011236 57 296 3.0 15.0 0.00 0.00 0.00 53 1024.6
20190425010736 57 311 6.0 15.0 0.00 0.00 0.00 54 1024.6
20190425010237 58 317 4.0 14.0 0.00 0.00 0.00 53 1024.6
20190425005737 58 307 0.0 12.0 0.00 0.00 0.00 53 1024.6
20190425005236 58 288 2.0 12.0 0.00 0.00 0.00 53 1024.6
20190425004736 58 294 2.0 13.0 0.00 0.00 0.00 53 1024.6
20190425004236 59 277 1.0 13.0 0.00 0.00 0.00 53 1024.6
20190425003737 58 325 2.0 13.0 0.00 0.00 0.00 53 1024.6
20190425003237 59 307 4.0 11.0 0.00 0.00 0.00 53 1024.6
20190425002736 58 313 6.0 15.0 0.00 0.00 0.00 52 1024.7
20190425002236 59 308 6.0 17.0 0.00 0.00 0.00 51 1024.8
20190425001736 58 318 7.0 17.0 0.00 0.00 0.00 54 1024.7
20190425001236 58 284 6.0 17.0 0.00 0.00 0.00 53 1024.7
20190425000737 59 290 5.0 15.0 0.00 0.00 0.00 52 1024.7
20190425000236 59 331 5.0 14.0 0.00 0.00 0.00 53 1024.8
20190424235737 60 281 2.0 14.0 0.00 0.00 0.00 53 1024.8
20190424235237 60 302 2.0 11.0 0.00 0.00 0.00 51 1024.7
20190424234736 60 301 1.0 11.0 0.00 0.00 0.00 48 1024.8
20190424234237 60 281 1.0 16.0 0.00 0.00 0.00 49 1024.8
20190424233737 60 336 3.0 16.0 0.00 0.00 0.00 51 1024.8
20190424233236 59 303 5.0 16.0 0.00 0.00 0.00 49 1024.9
20190424232737 60 318 2.0 11.0 0.00 0.00 0.00 48 1024.8
20190424232236 61 316 1.0 11.0 0.00 0.00 0.00 47 1024.8
20190424231736 61 271 2.0 12.0 0.00 0.00 0.00 48 1024.9
20190424231236 61 329 5.0 12.0 0.00 0.00 0.00 45 1024.9
20190424230736 61 315 4.0 10.0 0.00 0.00 0.00 46 1025.0
20190424230236 61 336 1.0 10.0 0.00 0.00 0.00 45 1025.0
20190424225736 61 29 0.0 2.0 0.00 0.00 0.00 45 1025.1
20190424225236 61 295 1.0 2.0 0.00 0.00 0.00 46 1025.1
20190424224736 61 323 0.0 2.0 0.00 0.00 0.00 45 1025.2
20190424224236 62 323 0.0 3.0 0.00 0.00 0.00 43 1025.1
20190424223736 60 334 0.0 3.0 0.00 0.00 0.00 48 1025.3
20190424223236 60 300 0.0 3.0 0.00 0.00 0.00 47 1025.3
20190424222737 60 300 1.0 15.0 0.00 0.00 0.00 47 1025.3
20190424222236 60 298 2.0 15.0 0.00 0.00 0.00 45 1025.3
20190424221737 61 344 1.0 15.0 0.00 0.00 0.00 46 1025.4
20190424221236 62 320 0.0 2.0 0.00 0.00 0.00 45 1025.4
20190424220737 62 334 0.0 4.0 0.00 0.00 0.00 47 1025.6
20190424220236 61 325 1.0 4.0 0.00 0.00 0.00 46 1025.6
20190424215737 61 318 1.0 12.0 0.00 0.00 0.00 45 1025.6
20190424215236 64 102 1.0 12.0 0.00 0.00 0.00 45 1025.6
20190424214737 61 20 1.0 12.0 0.00 0.00 0.00 50 1025.7
20190424214236 60 355 0.0 4.0 0.00 0.00 0.00 51 1025.7
20190424213737 61 294 0.0 4.0 0.00 0.00 0.00 48 1025.7
20190424213236 60 344 1.0 4.0 0.00 0.00 0.00 47 1025.8
20190424212737 62 342 0.0 3.0 0.00 0.00 0.00 47 1025.9
20190424212236 63 46 0.0 3.0 0.00 0.00 0.00 49 1025.9
20190424211737 61 5 0.0 13.0 0.00 0.00 0.00 48 1026.0
20190424211237 59 314 1.0 13.0 0.00 0.00 0.00 54 1026.0
20190424210737 60 318 2.0 13.0 0.00 0.00 0.00 52 1026.1
20190424210236 59 11 1.0 6.0 0.00 0.00 0.00 55 1026.0
20190424205736 60 313 1.0 8.0 0.00 0.00 0.00 52 1026.0
20190424205236 57 326 3.0 8.0 0.00 0.00 0.00 58 1026.0
20190424204736 57 307 2.0 8.0 0.00 0.00 0.00 56 1026.1
20190424204236 58 272 1.0 5.0 0.00 0.00 0.00 57 1026.1
20190424203737 58 288 1.0 6.0 0.00 0.00 0.00 57 1026.1
20190424203237 57 306 1.0 7.0 0.00 0.00 0.00 60 1026.1
20190424202737 57 319 2.0 7.0 0.00 0.00 0.00 58 1026.2
20190424202236 58 324 1.0 5.0 0.00 0.00 0.00 55 1026.2
20190424201736 59 321 0.0 5.0 0.00 0.00 0.00 57 1026.3
20190424201236 60 322 1.0 4.0 0.00 0.00 0.00 52 1026.2
20190424200737 59 88 1.0 6.0 0.00 0.00 0.00 58 1026.3
20190424200236 56 309 2.0 6.0 0.00 0.00 0.00 61 1026.3
20190424195737 57 306 2.0 6.0 0.00 0.00 0.00 58 1026.3
20190424195237 59 350 1.0 4.0 0.00 0.00 0.00 55 1026.3
20190424194736 60 350 0.0 3.0 0.00 0.00 0.00 55 1026.3
20190424194236 58 342 0.0 3.0 0.00 0.00 0.00 60 1026.3
20190424193737 56 181 1.0 2.0 0.00 0.00 0.00 63 1026.4
20190424193236 56 103 0.0 4.0 0.00 0.00 0.00 59 1026.4
20190424192737 58 9 1.0 4.0 0.00 0.00 0.00 59 1026.5
20190424192237 55 5 0.0 4.0 0.00 0.00 0.00 66 1026.5
20190424191736 55 276 0.0 3.0 0.00 0.00 0.00 66 1026.5
20190424191236 54 275 0.0 3.0 0.00 0.00 0.00 67 1026.6
20190424190737 54 276 0.0 3.0 0.00 0.00 0.00 66 1026.7
20190424190236 55 271 0.0 4.0 0.00 0.00 0.00 66 1026.8
20190424185736 55 279 0.0 4.0 0.00 0.00 0.00 64 1026.7
20190424185236 56 34 0.0 4.0 0.00 0.00 0.00 63 1026.7
20190424184736 56 40 1.0 4.0 0.00 0.00 0.00 64 1026.8
20190424184237 55 155 1.0 4.0 0.00 0.00 0.00 63 1026.8
20190424183736 55 150 0.0 4.0 0.00 0.00 0.00 65 1026.8
20190424183236 54 231 0.0 0.0 0.00 0.00 0.00 67 1026.8
20190424182736 53 355 0.0 0.0 0.00 0.00 0.00 68 1026.8
20190424182236 53 11 0.0 0.0 0.00 0.00 0.00 67 1026.8
20190424181737 53 16 0.0 2.0 0.00 0.00 0.00 67 1026.8
20190424181236 53 16 0.0 2.0 0.00 0.00 0.00 68 1026.8
20190424180736 53 18 0.0 2.0 0.00 0.00 0.00 68 1026.8
20190424180236 54 136 0.0 2.0 0.00 0.00 0.00 69 1026.8
20190424175736 53 136 0.0 2.0 0.00 0.00 0.00 69 1026.8
20190424175237 53 144 0.0 2.0 0.00 0.00 0.00 69 1026.8
20190424174736 53 225 0.0 1.0 0.00 0.00 0.00 71 1026.8
20190424174236 52 229 0.0 1.0 0.00 0.00 0.00 74 1026.9
20190424173736 51 228 0.0 1.0 0.00 0.00 0.00 74 1026.9
20190424173236 51 227 0.0 2.0 0.00 0.00 0.00 73 1026.8
20190424172736 51 228 0.0 3.0 0.00 0.00 0.00 74 1026.8
20190424172237 51 228 0.0 3.0 0.00 0.00 0.00 75 1026.8
20190424171737 51 216 0.0 1.0 0.00 0.00 0.00 74 1026.7
20190424171237 51 309 0.0 2.0 0.00 0.00 0.00 77 1026.7
20190424170737 50 309 0.0 3.0 0.00 0.00 0.00 76 1026.7
20190424170236 50 314 0.0 4.0 0.00 0.00 0.00 77 1026.7
20190424165736 50 313 1.0 5.0 0.00 0.00 0.00 77 1026.8
20190424165236 50 312 1.0 6.0 0.00 0.00 0.00 77 1026.8
20190424164736 50 310 1.0 6.0 0.00 0.00 0.00 77 1026.7
20190424164236 50 319 2.0 6.0 0.00 0.00 0.00 77 1026.7
20190424163736 50 342 1.0 5.0 0.00 0.00 0.00 79 1026.7